TimeCET,TemperatureF,Dew PointF,Humidity,Sea Level PressureIn,VisibilityMPH,Wind Direction,Wind SpeedMPH,Gust SpeedMPH,PrecipitationIn,Events,Conditions,WindDirDegrees,DateUTC
12:55 AM,8.6,-5.8,52,29.62,-9999.0,North,9.2,-,N/A,,Clear,10,2012-12-06 23:55:00
1:00 AM,8,-5,39,,37,North,9.2,,,,,10,2012-12-07 00:00:00
1:55 AM,8.6,-5.8,52,29.62,-9999.0,North,9.2,-,N/A,,Clear,360,2012-12-07 00:55:00
2:55 AM,8.6,-5.8,52,29.62,-9999.0,North,8.1,-,N/A,,Clear,10,2012-12-07 01:55:00
3:55 AM,8.6,-7.6,48,29.62,-9999.0,Variable,2.3,-,N/A,,Clear,0,2012-12-07 02:55:00
4:00 AM,8,-7,33,,37,,2.3,,,,,,2012-12-07 03:00:00
4:55 AM,8.6,-7.6,48,29.59,-9999.0,SSW,11.5,-,N/A,,Clear,200,2012-12-07 03:55:00
5:55 AM,8.6,-5.8,52,29.59,-9999.0,SSW,10.4,-,N/A,,Clear,210,2012-12-07 04:55:00
6:55 AM,8.6,-5.8,52,29.56,-9999.0,SSW,19.6,-,N/A,,Clear,210,2012-12-07 05:55:00
7:00 AM,8,-5,40,,37,SSW,19.6,,,,Partly Cloudy,210,2012-12-07 06:00:00
7:55 AM,8.6,-4.0,57,29.56,-9999.0,SSW,20.7,-,N/A,,Clear,210,2012-12-07 06:55:00
8:55 AM,8.6,-2.2,62,29.56,-9999.0,SSW,21.9,-,N/A,,Clear,200,2012-12-07 07:55:00
9:55 AM,8.6,1.4,73,29.53,-9999.0,SSW,23.0,-,N/A,,Clear,210,2012-12-07 08:55:00
10:00 AM,9,1,57,,25,SSW,23.0,,,,Partly Cloudy,210,2012-12-07 09:00:00
10:55 AM,8.6,5.0,85,29.53,6.2,SSW,21.9,-,N/A,,Partly Cloudy,210,2012-12-07 09:55:00
11:55 AM,8.6,6.8,92,29.53,6.2,SSW,20.7,-,N/A,,Scattered Clouds,210,2012-12-07 10:55:00
12:55 PM,10.4,8.6,92,29.50,0.2,SW,18.4,-,N/A,Fog,Light Freezing Fog,220,2012-12-07 11:55:00
1:00 PM,10,8,87,,0,SW,18.4,,,Fog,Heavy Fog,220,2012-12-07 12:00:00
1:55 PM,10.4,10.4,100,29.47,0.1,SSW,17.3,-,N/A,Fog,Light Freezing Fog,210,2012-12-07 12:55:00
2:55 PM,10.4,8.6,92,29.44,0.2,SW,18.4,-,N/A,Fog-Snow,Light Snow,220,2012-12-07 13:55:00
3:55 PM,12.2,8.6,85,29.42,0.1,South,9.2,-,N/A,Fog-Snow,Light Snow,190,2012-12-07 14:55:00
4:00 PM,11,10,90,,0,South,9.2,,,Snow,Light Snow,190,2012-12-07 15:00:00
4:55 PM,12.2,8.6,85,29.42,0.1,South,10.4,-,N/A,Fog-Snow,Light Snow,190,2012-12-07 15:55:00
5:55 PM,12.2,8.6,85,29.42,0.1,South,8.1,-,N/A,Fog-Snow,Light Snow,190,2012-12-07 16:55:00
6:55 PM,12.2,8.6,85,29.39,0.1,South,8.1,-,N/A,Fog-Snow,Light Snow,170,2012-12-07 17:55:00
7:00 PM,12,9,82,,0,South,8.1,,,Snow,Light Snow,170,2012-12-07 18:00:00
7:55 PM,12.2,10.4,92,29.39,0.1,Variable,3.5,-,N/A,Fog-Snow,Light Snow,0,2012-12-07 18:55:00
8:55 PM,12.2,8.6,85,29.39,0.4,North,6.9,-,N/A,Fog-Snow,Light Snow,10,2012-12-07 19:55:00
9:55 PM,12.2,8.6,85,29.39,0.4,NNW,3.5,-,N/A,Fog-Snow,Light Snow,330,2012-12-07 20:55:00
10:00 PM,12,8,77,,0,NNW,3.5,,,Snow,Light Snow,330,2012-12-07 21:00:00
10:55 PM,10.4,6.8,85,29.39,0.6,North,12.7,-,N/A,Fog-Snow,Light Snow,360,2012-12-07 21:55:00
11:55 PM,10.4,6.8,85,29.36,0.6,North,20.7,-,N/A,Fog-Snow,Light Snow,360,2012-12-07 22:55:00